Orangeburg, SC

3:40 PM EDT on July 25, 2017 (GMT -0400)
Orangeburg Municipal

Weather History for KOGB - July, 2012

Change the Weather History Date:

Monday, July 16, 2012

  Actual Average Record
Temperature  
Mean Temperature 82 °F 82 °F  
Max Temperature 92 °F 93 °F 103 °F (1977)
Min Temperature 71 °F 71 °F 60 °F (1967)
Degree Days  
Heating Degree Days 0 0  
Month to date heating degree days 0 0  
Since 1 June heating degree days 0 1  
Since 1 July heating degree days 0 0  
Cooling Degree Days 17 17  
Month to date cooling degree days 289 265  
Year to date cooling degree days 1170 966  
Since 1 June cooling degree days 622 663  
Growing Degree Days 32 (Base 50)    
Moisture  
Dew Point 71 °F    
Average Humidity 73    
Maximum Humidity 93    
Minimum Humidity 49    
Precipitation  
Precipitation 0.00 in 0.17 in 1.89 in (2017)
Month to date precipitation 4.48 2.92  
Year to date precipitation 24.56 25.66  
Sea Level Pressure  
Sea Level Pressure 30.04 in    
Wind  
Wind Speed 3 mph (WNW)    
Max Wind Speed 16 mph    
Max Gust Speed 21 mph    
Visibility 10 miles    
Events      
T = Trace of Precipitation, MM = Missing Value Source: NWS Daily Summary

Daily Weather History Graph

Daily Weather History Graph

Search for Another Location

Airport or City:

Trip Planner

Search our weather history database for the weather conditions in past years. The results will help you decide how hot, cold, wet, or windy it might be!

Date:

Astronomy

Jul. 16, 2012 Rise Set
Actual Time 6:25 AM EDT 8:33 PM EDT
Civil Twilight 5:57 AM EDT 9:01 PM EDT
Nautical Twilight 5:22 AM EDT 9:35 PM EDT
Astronomical Twilight 4:45 AM EDT 10:12 PM EDT
Moon 4:08 AM EDT (7/16) 6:37 PM EDT (7/16)
Length of Visible Light 15h 04m
Length of Day
14h 07m
Waning Crescent, 6% of the Moon is Illuminated
Jul 16
Waning Crescent
Jul 19
New
Jul 26
First Quarter
Aug 1
Full
Aug 9
Last Quarter

Hourly Weather History & Observations

Time (EDT) Temp. Heat Index Dew Point Humidity Pressure Visibility Wind Dir Wind Speed Gust Speed Precip Events Conditions
12:53 AM 75.0 °F - 72.0 °F 90% 30.12 in 10.0 mi Calm Calm - N/A   Clear
1:53 AM 73.9 °F - 72.0 °F 93% 30.11 in 10.0 mi Calm Calm - N/A   Clear
2:53 AM 73.0 °F - 71.1 °F 93% 30.09 in 10.0 mi Calm Calm - N/A   Clear
3:53 AM 73.0 °F - 70.0 °F 90% 30.09 in 9.0 mi Calm Calm - N/A   Clear
4:53 AM 73.0 °F - 70.0 °F 90% 30.08 in 10.0 mi Calm Calm - N/A   Clear
5:53 AM 72.0 °F - 70.0 °F 93% 30.09 in 8.0 mi Calm Calm - N/A   Clear
6:53 AM 72.0 °F - 70.0 °F 93% 30.09 in 8.0 mi Calm Calm - N/A   Clear
7:53 AM 75.9 °F - 72.0 °F 87% 30.10 in 10.0 mi Calm Calm - N/A   Clear
8:53 AM 79.0 °F - 73.0 °F 82% 30.11 in 10.0 mi WSW 4.6 mph - N/A   Clear
9:53 AM 82.0 °F 86.7 °F 72.0 °F 71% 30.09 in 10.0 mi WSW 5.8 mph - N/A   Partly Cloudy
10:53 AM 84.9 °F 90.7 °F 72.0 °F 65% 30.09 in 10.0 mi Variable 4.6 mph - N/A   Partly Cloudy
11:53 AM 86.0 °F 91.5 °F 71.1 °F 61% 30.08 in 10.0 mi Calm Calm - N/A   Clear
12:53 PM 87.1 °F 92.0 °F 70.0 °F 57% 30.06 in 10.0 mi North 3.5 mph - N/A   Mostly Cloudy
1:53 PM 89.1 °F 95.0 °F 71.1 °F 55% 30.04 in 10.0 mi Variable 3.5 mph - N/A   Clear
2:53 PM 90.0 °F 95.4 °F 70.0 °F 52% 30.01 in 10.0 mi SSW 4.6 mph - N/A   Clear
3:53 PM 91.0 °F 96.6 °F 70.0 °F 50% 29.99 in 10.0 mi SSE 4.6 mph - N/A   Partly Cloudy
4:53 PM 91.0 °F 95.6 °F 69.1 °F 48% 29.96 in 10.0 mi SW 3.5 mph - N/A   Partly Cloudy
5:53 PM 91.0 °F 95.6 °F 69.1 °F 48% 29.96 in 10.0 mi Calm Calm - N/A   Clear
6:53 PM 89.1 °F 96.0 °F 72.0 °F 57% 29.97 in 10.0 mi NNE 12.7 mph 20.7 mph N/A   Partly Cloudy
7:43 PM 82.4 °F 86.3 °F 69.8 °F 66% 30.00 in 1.5 mi NNW 8.1 mph - N/A   Haze
7:51 PM 82.4 °F 87.2 °F 71.6 °F 70% 30.00 in 10.0 mi NW 9.2 mph - N/A   Partly Cloudy
7:53 PM 82.0 °F 86.3 °F 71.1 °F 69% 29.99 in 10.0 mi NW 9.2 mph - N/A   Partly Cloudy
8:53 PM 81.0 °F 84.1 °F 69.1 °F 67% 29.98 in 10.0 mi Calm Calm - N/A   Clear
9:53 PM 78.1 °F - 70.0 °F 76% 30.00 in 10.0 mi West 3.5 mph - N/A   Clear
10:53 PM 75.9 °F - 71.1 °F 85% 30.00 in 10.0 mi Calm Calm - N/A   Clear
11:53 PM 75.9 °F - 72.0 °F 87% 30.01 in 10.0 mi NW 4.6 mph - N/A   Clear